| time (UTC) | temp C | wind direction | speed KPH | gust KPH | rain 1hr cm | rain 24hr cm | rain mn cm | humidity % | barometer mb |
| 20260506215004 | 8 | 30 | 3.2 | 8.0 | 0.00 | 0.00 | 0.00 | 84 | 1014.1 |
| 20260506214004 | 8 | 45 | 4.8 | 12.9 | 0.00 | 0.00 | 0.00 | 84 | 1014.0 |
| 20260506213004 | 8 | 35 | 3.2 | 14.5 | 0.00 | 0.00 | 0.00 | 83 | 1014.0 |
| 20260506212003 | 8 | 31 | 3.2 | 9.7 | 0.00 | 0.00 | 0.00 | 83 | 1014.0 |
| 20260506211004 | 9 | 35 | 3.2 | 12.9 | 0.00 | 0.00 | 0.00 | 83 | 1014.0 |
| 20260506205003 | 9 | 13 | 4.8 | 12.9 | 0.00 | 0.00 | 0.00 | 82 | 1013.9 |
| 20260506203005 | 9 | 32 | 4.8 | 11.3 | 0.00 | 0.00 | 0.00 | 81 | 1013.7 |
| 20260506201004 | 10 | 33 | 4.8 | 16.1 | 0.00 | 0.00 | 0.00 | 79 | 1013.6 |
| 20260506200004 | 10 | 32 | 3.2 | 14.5 | 0.00 | 0.00 | 0.00 | 79 | 1013.5 |
| 20260506195005 | 10 | 36 | 3.2 | 12.9 | 0.00 | 0.00 | 0.00 | 79 | 1013.4 |
| 20260506194005 | 10 | 18 | 4.8 | 14.5 | 0.00 | 0.00 | 0.00 | 77 | 1013.3 |
| 20260506193004 | 10 | 4 | 4.8 | 16.1 | 0.00 | 0.00 | 0.00 | 76 | 1013.2 |
| 20260506192005 | 11 | 354 | 4.8 | 12.9 | 0.00 | 0.00 | 0.00 | 75 | 1013.1 |
| 20260506191004 | 11 | 5 | 4.8 | 14.5 | 0.00 | 0.00 | 0.00 | 73 | 1013.0 |
| 20260506190003 | 11 | 358 | 3.2 | 12.9 | 0.00 | 0.00 | 0.00 | 72 | 1012.9 |
| 20260506185002 | 11 | 345 | 3.2 | 8.0 | 0.00 | 0.00 | 0.00 | 70 | 1012.9 |
| 20260506184003 | 11 | 12 | 6.4 | 14.5 | 0.00 | 0.00 | 0.00 | 69 | 1012.7 |
| 20260506183003 | 11 | 33 | 6.4 | 14.5 | 0.00 | 0.00 | 0.00 | 69 | 1012.7 |
| 20260506182003 | 11 | 35 | 6.4 | 20.9 | 0.00 | 0.00 | 0.00 | 68 | 1012.6 |
| 20260506181003 | 12 | 8 | 6.4 | 17.7 | 0.00 | 0.00 | 0.00 | 66 | 1012.5 |
| 20260506180003 | 12 | 343 | 8.0 | 19.3 | 0.00 | 0.00 | 0.00 | 65 | 1012.3 |
| 20260506174002 | 13 | 6 | 6.4 | 17.7 | 0.00 | 0.00 | 0.00 | 63 | 1012.2 |
| 20260506172003 | 13 | 3 | 8.0 | 17.7 | 0.00 | 0.00 | 0.00 | 63 | 1012.1 |
| 20260506171002 | 12 | 11 | 6.4 | 17.7 | 0.00 | 0.00 | 0.00 | 64 | 1012.1 |
| 20260506164003 | 12 | 5 | 8.0 | 19.3 | 0.00 | 0.00 | 0.00 | 66 | 1012.0 |
| 20260506163002 | 12 | 7 | 6.4 | 17.7 | 0.00 | 0.00 | 0.00 | 65 | 1012.1 |
| 20260506162003 | 12 | 357 | 8.0 | 16.1 | 0.00 | 0.00 | 0.00 | 64 | 1012.1 |
| 20260506160003 | 12 | 359 | 8.0 | 20.9 | 0.00 | 0.00 | 0.00 | 66 | 1012.1 |
| 20260506155002 | 12 | 15 | 6.4 | 19.3 | 0.00 | 0.00 | 0.00 | 66 | 1012.1 |
| 20260506153003 | 12 | 356 | 8.0 | 19.3 | 0.00 | 0.00 | 0.00 | 66 | 1012.2 |
| 20260506152003 | 12 | 6 | 6.4 | 19.3 | 0.00 | 0.00 | 0.00 | 67 | 1012.2 |
| 20260506151003 | 12 | 354 | 6.4 | 17.7 | 0.00 | 0.00 | 0.00 | 67 | 1012.2 |
| 20260506150002 | 12 | 356 | 6.4 | 14.5 | 0.00 | 0.00 | 0.00 | 67 | 1012.2 |
| 20260506145003 | 12 | 353 | 8.0 | 19.3 | 0.00 | 0.00 | 0.00 | 67 | 1012.3 |
| 20260506144002 | 12 | 6 | 8.0 | 14.5 | 0.00 | 0.00 | 0.00 | 68 | 1012.2 |
| 20260506143002 | 12 | 8 | 9.7 | 20.9 | 0.00 | 0.00 | 0.00 | 69 | 1012.2 |
| 20260506142003 | 12 | 8 | 11.3 | 22.5 | 0.00 | 0.00 | 0.00 | 69 | 1012.2 |
| 20260506141003 | 12 | 354 | 9.7 | 24.1 | 0.00 | 0.00 | 0.00 | 70 | 1012.3 |
| 20260506140003 | 11 | 349 | 9.7 | 20.9 | 0.00 | 0.00 | 0.00 | 71 | 1012.3 |
| 20260506135002 | 12 | 359 | 9.7 | 20.9 | 0.00 | 0.00 | 0.00 | 72 | 1012.4 |
| 20260506134003 | 12 | 350 | 8.0 | 22.5 | 0.00 | 0.00 | 0.00 | 70 | 1012.3 |
| 20260506133003 | 12 | 358 | 11.3 | 24.1 | 0.00 | 0.00 | 0.00 | 70 | 1012.4 |
| 20260506132002 | 11 | 356 | 12.9 | 27.4 | 0.00 | 0.00 | 0.00 | 71 | 1012.4 |
| 20260506131003 | 11 | 347 | 11.3 | 25.7 | 0.00 | 0.00 | 0.00 | 71 | 1012.5 |
| 20260506130003 | 12 | 5 | 8.0 | 24.1 | 0.00 | 0.00 | 0.00 | 72 | 1012.5 |
| 20260506125003 | 12 | 30 | 9.7 | 19.3 | 0.00 | 0.00 | 0.00 | 70 | 1012.5 |
| 20260506124004 | 12 | 33 | 9.7 | 20.9 | 0.00 | 0.00 | 0.00 | 69 | 1012.5 |
| 20260506123003 | 12 | 5 | 11.3 | 25.7 | 0.00 | 0.00 | 0.00 | 70 | 1012.4 |
| 20260506115003 | 11 | 356 | 9.7 | 24.1 | 0.00 | 0.00 | 0.00 | 72 | 1012.5 |
| 20260506114005 | 11 | 18 | 8.0 | 22.5 | 0.00 | 0.00 | 0.00 | 73 | 1012.5 |
| 20260506113004 | 11 | 24 | 8.0 | 22.5 | 0.00 | 0.00 | 0.00 | 73 | 1012.6 |
| 20260506112002 | 10 | 11 | 9.7 | 25.7 | 0.00 | 0.00 | 0.00 | 74 | 1012.6 |
| 20260506111003 | 11 | 25 | 8.0 | 20.9 | 0.00 | 0.00 | 0.00 | 74 | 1012.6 |
| 20260506110003 | 11 | 23 | 6.4 | 19.3 | 0.00 | 0.00 | 0.00 | 73 | 1012.6 |
| 20260506105002 | 11 | 6 | 9.7 | 20.9 | 0.00 | 0.00 | 0.00 | 73 | 1012.6 |
| 20260506104003 | 10 | 13 | 9.7 | 20.9 | 0.00 | 0.00 | 0.00 | 72 | 1012.7 |
| 20260506103003 | 10 | 14 | 8.0 | 19.3 | 0.00 | 0.00 | 0.00 | 72 | 1012.6 |
| 20260506102003 | 10 | 1 | 9.7 | 19.3 | 0.00 | 0.00 | 0.00 | 70 | 1012.6 |
| 20260506101003 | 10 | 19 | 9.7 | 22.5 | 0.00 | 0.00 | 0.00 | 70 | 1012.5 |
| 20260506095003 | 10 | 3 | 9.7 | 25.7 | 0.00 | 0.00 | 0.00 | 71 | 1012.7 |
| 20260506094003 | 10 | 359 | 8.0 | 24.1 | 0.00 | 0.00 | 0.00 | 72 | 1012.5 |
| 20260506093003 | 11 | 6 | 8.0 | 16.1 | 0.00 | 0.00 | 0.00 | 70 | 1012.5 |
| 20260506092002 | 11 | 21 | 11.3 | 20.9 | 0.00 | 0.00 | 0.00 | 72 | 1012.5 |
| 20260506090004 | 10 | 348 | 11.3 | 27.4 | 0.00 | 0.00 | 0.00 | 71 | 1012.4 |
| 20260506085003 | 10 | 8 | 8.0 | 20.9 | 0.00 | 0.00 | 0.00 | 73 | 1012.4 |
| 20260506084003 | 10 | 356 | 9.7 | 22.5 | 0.00 | 0.00 | 0.00 | 74 | 1012.3 |
| 20260506083003 | 9 | 355 | 9.7 | 19.3 | 0.00 | 0.00 | 0.00 | 71 | 1012.3 |
| 20260506082003 | 9 | 2 | 8.0 | 19.3 | 0.00 | 0.00 | 0.00 | 73 | 1012.3 |
| 20260506081004 | 9 | 352 | 11.3 | 22.5 | 0.00 | 0.00 | 0.00 | 77 | 1012.3 |
| 20260506073003 | 8 | 9 | 8.0 | 17.7 | 0.00 | 0.00 | 0.00 | 81 | 1012.3 |
| 20260506072003 | 8 | 355 | 9.7 | 20.9 | 0.00 | 0.00 | 0.00 | 82 | 1012.2 |
| 20260506071002 | 7 | 355 | 8.0 | 20.9 | 0.00 | 0.00 | 0.00 | 82 | 1012.3 |
| 20260506062003 | 7 | 7 | 8.0 | 24.1 | 0.00 | 0.00 | 0.00 | 84 | 1012.0 |
| 20260506061003 | 7 | 1 | 8.0 | 20.9 | 0.00 | 0.00 | 0.00 | 85 | 1011.9 |
| 20260506051003 | 7 | 7 | 4.8 | 22.5 | 0.00 | 0.00 | 0.00 | 84 | 1012.0 |
| 20260506045003 | 7 | 13 | 6.4 | 19.3 | 0.00 | 0.00 | 0.00 | 84 | 1012.0 |
| 20260506044003 | 7 | 359 | 6.4 | 19.3 | 0.00 | 0.00 | 0.00 | 84 | 1011.9 |
| 20260506043003 | 7 | 354 | 6.4 | 14.5 | 0.00 | 0.00 | 0.00 | 84 | 1011.8 |
| 20260506042003 | 7 | 2 | 9.7 | 20.9 | 0.00 | 0.00 | 0.00 | 84 | 1011.9 |
| 20260506041003 | 7 | 356 | 6.4 | 22.5 | 0.00 | 0.00 | 0.00 | 84 | 1012.0 |
| 20260506040004 | 7 | 358 | 4.8 | 22.5 | 0.00 | 0.00 | 0.00 | 84 | 1011.9 |
| 20260506035003 | 7 | 16 | 4.8 | 14.5 | 0.00 | 0.00 | 0.00 | 84 | 1011.9 |
| 20260506034003 | 7 | 359 | 6.4 | 19.3 | 0.00 | 0.00 | 0.00 | 84 | 1011.9 |
| 20260506033004 | 7 | 1 | 6.4 | 20.9 | 0.00 | 0.00 | 0.00 | 84 | 1011.9 |
| 20260506031003 | 7 | 6 | 6.4 | 19.3 | 0.00 | 0.00 | 0.00 | 84 | 1011.9 |
| 20260506030003 | 8 | 7 | 4.8 | 14.5 | 0.00 | 0.00 | 0.00 | 84 | 1011.9 |
| 20260506025003 | 8 | 2 | 4.8 | 16.1 | 0.00 | 0.00 | 0.00 | 84 | 1011.9 |
| 20260506024003 | 8 | 26 | 4.8 | 16.1 | 0.00 | 0.00 | 0.00 | 84 | 1011.9 |
| 20260506023002 | 8 | 33 | 4.8 | 16.1 | 0.00 | 0.00 | 0.00 | 84 | 1012.0 |
| 20260506022002 | 8 | 22 | 3.2 | 11.3 | 0.00 | 0.00 | 0.00 | 84 | 1012.1 |
| 20260506021002 | 8 | 1 | 4.8 | 9.7 | 0.00 | 0.00 | 0.00 | 85 | 1012.1 |
| 20260506020004 | 8 | 14 | 4.8 | 17.7 | 0.00 | 0.00 | 0.00 | 84 | 1012.2 |
| 20260506015002 | 8 | 16 | 4.8 | 16.1 | 0.00 | 0.00 | 0.00 | 85 | 1012.0 |
| 20260506014003 | 8 | 14 | 6.4 | 17.7 | 0.00 | 0.00 | 0.00 | 84 | 1012.0 |
| 20260506012004 | 9 | 25 | 4.8 | 16.1 | 0.00 | 0.00 | 0.00 | 83 | 1012.1 |
| 20260506011003 | 9 | 11 | 4.8 | 12.9 | 0.00 | 0.00 | 0.00 | 83 | 1012.1 |
| 20260506005003 | 9 | 39 | 6.4 | 12.9 | 0.00 | 0.00 | 0.00 | 85 | 1012.2 |
| 20260506004002 | 9 | 30 | 6.4 | 16.1 | 0.00 | 0.00 | 0.00 | 85 | 1012.2 |
| 20260506003003 | 9 | 32 | 4.8 | 16.1 | 0.00 | 0.00 | 0.00 | 85 | 1012.2 |
| 20260506002004 | 9 | 18 | 6.4 | 14.5 | 0.00 | 0.00 | 0.00 | 85 | 1012.3 |
| 20260506001004 | 9 | 28 | 4.8 | 17.7 | 0.00 | 0.00 | 0.00 | 85 | 1012.4 |
| 20260506000003 | 10 | 26 | 6.4 | 16.1 | 0.00 | 0.00 | 0.00 | 85 | 1012.3 |
| 20260505235002 | 10 | 14 | 4.8 | 14.5 | 0.00 | 0.00 | 0.00 | 84 | 1012.2 |
| 20260505234003 | 10 | 20 | 6.4 | 17.7 | 0.00 | 0.00 | 0.00 | 84 | 1012.2 |
| 20260505233003 | 10 | 28 | 6.4 | 12.9 | 0.00 | 0.00 | 0.00 | 83 | 1012.2 |
| 20260505231003 | 10 | 35 | 3.2 | 16.1 | 0.00 | 0.00 | 0.00 | 82 | 1012.3 |
| 20260505225003 | 10 | 46 | 6.4 | 20.9 | 0.00 | 0.00 | 0.00 | 80 | 1012.4 |
| 20260505224002 | 10 | 29 | 6.4 | 20.9 | 0.00 | 0.00 | 0.00 | 80 | 1012.2 |
| 20260505223003 | 10 | 36 | 4.8 | 16.1 | 0.00 | 0.00 | 0.00 | 80 | 1012.2 |
| 20260505222003 | 10 | 43 | 6.4 | 17.7 | 0.00 | 0.00 | 0.00 | 81 | 1012.2 |
| 20260505221004 | 11 | 42 | 6.4 | 20.9 | 0.00 | 0.00 | 0.00 | 81 | 1012.4 |
| 20260505220003 | 11 | 31 | 6.4 | 14.5 | 0.00 | 0.00 | 0.00 | 80 | 1012.2 |